| time (UTC) | temp F | wind direction | speed MPH | gust MPH | rain 1hr in | rain 24hr in | rain mn in | humidity % | barometer mb |
| 20260506172516 | 56 | 197 | 4.0 | 8.0 | 0.16 | 0.58 | 0.58 | 97 | 1007.9 |
| 20260506171516 | 56 | 203 | 4.0 | 11.0 | 0.18 | 0.57 | 0.57 | 97 | 1007.9 |
| 20260506170516 | 56 | 180 | 4.0 | 9.0 | 0.19 | 0.55 | 0.55 | 97 | 1007.9 |
| 20260506165516 | 56 | 192 | 3.0 | 7.0 | 0.18 | 0.53 | 0.53 | 97 | 1007.9 |
| 20260506164516 | 56 | 182 | 5.0 | 14.0 | 0.18 | 0.49 | 0.49 | 97 | 1007.9 |
| 20260506163516 | 55 | 159 | 5.0 | 14.0 | 0.17 | 0.46 | 0.46 | 97 | 1008.0 |
| 20260506162516 | 55 | 181 | 5.0 | 11.0 | 0.13 | 0.42 | 0.42 | 97 | 1008.1 |
| 20260506161516 | 55 | 182 | 4.0 | 14.0 | 0.12 | 0.39 | 0.39 | 97 | 1008.3 |
| 20260506160516 | 55 | 178 | 5.0 | 10.0 | 0.11 | 0.36 | 0.36 | 97 | 1008.5 |
| 20260506155516 | 55 | 188 | 4.0 | 10.0 | 0.12 | 0.35 | 0.35 | 97 | 1008.4 |
| 20260506154516 | 55 | 181 | 6.0 | 14.0 | 0.11 | 0.31 | 0.31 | 96 | 1008.5 |
| 20260506153516 | 55 | 179 | 4.0 | 11.0 | 0.11 | 0.29 | 0.29 | 97 | 1008.4 |
| 20260506152517 | 55 | 184 | 5.0 | 12.0 | 0.13 | 0.29 | 0.29 | 96 | 1008.4 |
| 20260506151516 | 55 | 180 | 3.0 | 9.0 | 0.13 | 0.27 | 0.27 | 96 | 1008.6 |
| 20260506150516 | 55 | 205 | 4.0 | 11.0 | 0.13 | 0.25 | 0.25 | 96 | 1008.7 |
| 20260506145516 | 55 | 177 | 5.0 | 12.0 | 0.13 | 0.23 | 0.23 | 96 | 1008.9 |
| 20260506144516 | 55 | 200 | 6.0 | 14.0 | 0.11 | 0.20 | 0.20 | 96 | 1009.1 |
| 20260506143516 | 55 | 188 | 3.0 | 10.0 | 0.12 | 0.18 | 0.18 | 96 | 1009.1 |
| 20260506142516 | 55 | 178 | 4.0 | 10.0 | 0.12 | 0.16 | 0.16 | 96 | 1009.3 |
| 20260506141516 | 55 | 188 | 5.0 | 14.0 | 0.11 | 0.14 | 0.14 | 96 | 1009.4 |
| 20260506140516 | 55 | 190 | 6.0 | 12.0 | 0.10 | 0.12 | 0.12 | 96 | 1009.6 |
| 20260506135516 | 56 | 178 | 5.0 | 11.0 | 0.09 | 0.10 | 0.10 | 96 | 1009.6 |
| 20260506134516 | 56 | 190 | 4.0 | 10.0 | 0.08 | 0.09 | 0.09 | 95 | 1009.6 |
| 20260506133516 | 56 | 195 | 4.0 | 10.0 | 0.05 | 0.06 | 0.06 | 95 | 1009.6 |
| 20260506132516 | 56 | 199 | 5.0 | 10.0 | 0.03 | 0.04 | 0.04 | 94 | 1009.5 |
| 20260506131516 | 56 | 185 | 5.0 | 13.0 | 0.02 | 0.03 | 0.03 | 93 | 1009.4 |
| 20260506130517 | 56 | 193 | 4.0 | 12.0 | 0.02 | 0.02 | 0.02 | 92 | 1009.3 |
| 20260506125536 | 56 | 190 | 4.0 | 14.0 | 0.01 | 0.01 | 0.01 | 92 | 1009.2 |
| 20260506124516 | 56 | 200 | 4.0 | 11.0 | 0.01 | 0.01 | 0.01 | 92 | 1009.2 |
| 20260506123516 | 56 | 192 | 3.0 | 9.0 | 0.01 | 0.01 | 0.01 | 92 | 1009.2 |
| 20260506122516 | 56 | 182 | 3.0 | 9.0 | 0.01 | 0.01 | 0.01 | 92 | 1009.3 |
| 20260506121516 | 56 | 191 | 2.0 | 7.0 | 0.01 | 0.01 | 0.01 | 90 | 1009.4 |
| 20260506120516 | 56 | 180 | 1.0 | 7.0 | 0.00 | 0.00 | 0.00 | 88 | 1009.6 |
| 20260506115557 | 57 | 203 | 3.0 | 9.0 | 0.00 | 0.00 | 0.00 | 85 | 1009.6 |
| 20260506114517 | 58 | 197 | 3.0 | 8.0 | 0.00 | 0.00 | 0.00 | 81 | 1009.8 |
| 20260506113516 | 58 | 184 | 5.0 | 10.0 | 0.00 | 0.00 | 0.00 | 79 | 1009.8 |
| 20260506112516 | 58 | 171 | 3.0 | 9.0 | 0.00 | 0.00 | 0.00 | 79 | 1009.7 |
| 20260506111516 | 58 | 213 | 5.0 | 12.0 | 0.00 | 0.00 | 0.00 | 77 | 1009.4 |
| 20260506110516 | 58 | 200 | 5.0 | 9.0 | 0.00 | 0.00 | 0.00 | 77 | 1009.4 |
| 20260506105516 | 58 | 219 | 2.0 | 6.0 | 0.00 | 0.00 | 0.00 | 77 | 1009.3 |
| 20260506104516 | 58 | 210 | 2.0 | 7.0 | 0.00 | 0.00 | 0.00 | 75 | 1009.2 |
| 20260506103536 | 59 | 186 | 3.0 | 6.0 | 0.00 | 0.00 | 0.00 | 74 | 1009.2 |
| 20260506102516 | 59 | 199 | 2.0 | 12.0 | 0.00 | 0.00 | 0.00 | 72 | 1009.3 |
| 20260506101516 | 59 | 205 | 4.0 | 11.0 | 0.00 | 0.00 | 0.00 | 71 | 1009.3 |
| 20260506100516 | 59 | 208 | 4.0 | 10.0 | 0.00 | 0.00 | 0.00 | 71 | 1009.1 |
| 20260506095516 | 59 | 206 | 2.0 | 9.0 | 0.00 | 0.00 | 0.00 | 70 | 1008.9 |
| 20260506094516 | 59 | 193 | 4.0 | 13.0 | 0.00 | 0.00 | 0.00 | 70 | 1009.0 |
| 20260506093557 | 60 | 191 | 4.0 | 12.0 | 0.00 | 0.00 | 0.00 | 69 | 1009.2 |
| 20260506092516 | 60 | 178 | 5.0 | 16.0 | 0.00 | 0.00 | 0.00 | 69 | 1009.2 |
| 20260506091516 | 60 | 236 | 5.0 | 15.0 | 0.00 | 0.00 | 0.00 | 68 | 1009.3 |
| 20260506090516 | 60 | 215 | 4.0 | 12.0 | 0.00 | 0.00 | 0.00 | 68 | 1009.3 |
| 20260506085516 | 60 | 191 | 2.0 | 8.0 | 0.00 | 0.00 | 0.00 | 67 | 1009.2 |
| 20260506084516 | 60 | 168 | 3.0 | 8.0 | 0.00 | 0.00 | 0.00 | 67 | 1009.2 |
| 20260506083536 | 60 | 213 | 4.0 | 10.0 | 0.00 | 0.00 | 0.00 | 67 | 1009.3 |
| 20260506082516 | 60 | 211 | 5.0 | 13.0 | 0.00 | 0.00 | 0.00 | 67 | 1009.4 |
| 20260506081516 | 60 | 222 | 4.0 | 14.0 | 0.00 | 0.00 | 0.00 | 68 | 1009.5 |
| 20260506080516 | 60 | 197 | 5.0 | 11.0 | 0.00 | 0.00 | 0.00 | 67 | 1009.5 |
| 20260506073516 | 60 | 186 | 3.0 | 7.0 | 0.00 | 0.00 | 0.00 | 68 | 1009.7 |
| 20260506072516 | 59 | 174 | 3.0 | 10.0 | 0.00 | 0.00 | 0.00 | 68 | 1009.8 |
| 20260506071516 | 60 | 177 | 3.0 | 11.0 | 0.00 | 0.00 | 0.00 | 68 | 1009.9 |
| 20260506070516 | 59 | 190 | 3.0 | 8.0 | 0.00 | 0.00 | 0.00 | 67 | 1009.7 |
| 20260506062516 | 60 | 165 | 2.0 | 7.0 | 0.00 | 0.00 | 0.00 | 65 | 1010.2 |
| 20260506061516 | 60 | 204 | 3.0 | 9.0 | 0.00 | 0.00 | 0.00 | 65 | 1010.4 |
| 20260506060516 | 61 | 193 | 3.0 | 7.0 | 0.00 | 0.00 | 0.00 | 64 | 1010.2 |
| 20260506050516 | 62 | 175 | 4.0 | 16.0 | 0.00 | 0.00 | 0.00 | 62 | 1010.5 |
| 20260506044516 | 62 | 197 | 4.0 | 14.0 | 0.00 | 0.00 | 0.00 | 62 | 1010.6 |
| 20260506043516 | 61 | 201 | 3.0 | 8.0 | 0.00 | 0.00 | 0.00 | 64 | 1010.6 |
| 20260506042536 | 61 | 199 | 3.0 | 10.0 | 0.00 | 0.00 | 0.00 | 63 | 1010.7 |
| 20260506041536 | 61 | 187 | 3.0 | 9.0 | 0.00 | 0.00 | 0.00 | 63 | 1010.7 |
| 20260506040516 | 62 | 185 | 4.0 | 10.0 | 0.00 | 0.00 | 0.00 | 63 | 1010.7 |
| 20260506035536 | 62 | 182 | 3.0 | 12.0 | 0.00 | 0.00 | 0.00 | 63 | 1010.8 |
| 20260506034536 | 62 | 177 | 3.0 | 9.0 | 0.00 | 0.00 | 0.00 | 63 | 1010.7 |
| 20260506033516 | 62 | 174 | 3.0 | 10.0 | 0.00 | 0.00 | 0.00 | 62 | 1010.6 |
| 20260506032516 | 63 | 171 | 3.0 | 13.0 | 0.00 | 0.00 | 0.00 | 62 | 1010.5 |
| 20260506031516 | 63 | 177 | 4.0 | 15.0 | 0.00 | 0.00 | 0.00 | 63 | 1010.5 |
| 20260506030516 | 63 | 177 | 4.0 | 10.0 | 0.00 | 0.00 | 0.00 | 63 | 1010.5 |
| 20260506025516 | 62 | 179 | 3.0 | 9.0 | 0.00 | 0.00 | 0.00 | 65 | 1010.5 |
| 20260506024516 | 63 | 217 | 3.0 | 6.0 | 0.00 | 0.00 | 0.00 | 65 | 1010.6 |
| 20260506023516 | 63 | 212 | 2.0 | 9.0 | 0.00 | 0.00 | 0.00 | 63 | 1010.6 |
| 20260506022516 | 63 | 191 | 2.0 | 5.0 | 0.00 | 0.00 | 0.00 | 64 | 1010.6 |
| 20260506021516 | 63 | 213 | 2.0 | 4.0 | 0.00 | 0.00 | 0.00 | 65 | 1010.6 |
| 20260506020536 | 63 | 227 | 1.0 | 3.0 | 0.00 | 0.00 | 0.00 | 63 | 1010.6 |
| 20260506015516 | 63 | 242 | 0.0 | 2.0 | 0.00 | 0.00 | 0.00 | 63 | 1010.6 |
| 20260506014516 | 63 | 242 | 2.0 | 3.0 | 0.00 | 0.00 | 0.00 | 63 | 1010.5 |
| 20260506013536 | 63 | 242 | 1.0 | 2.0 | 0.00 | 0.00 | 0.00 | 64 | 1010.5 |
| 20260506012516 | 63 | 242 | 1.0 | 3.0 | 0.00 | 0.00 | 0.00 | 65 | 1010.4 |
| 20260506011516 | 63 | 0.0 | 0.0 | 0.00 | 0.00 | 0.00 | 65 | 1010.4 | |
| 20260506010516 | 63 | 242 | 0.0 | 2.0 | 0.00 | 0.00 | 0.00 | 66 | 1010.2 |
| 20260506005516 | 64 | 0.0 | 0.0 | 0.00 | 0.00 | 0.00 | 65 | 1010.3 | |
| 20260506004517 | 64 | 165 | 0.0 | 2.0 | 0.00 | 0.00 | 0.00 | 66 | 1010.1 |
| 20260506003517 | 64 | 167 | 1.0 | 6.0 | 0.00 | 0.00 | 0.00 | 63 | 1010.1 |
| 20260506002517 | 63 | 290 | 0.0 | 2.0 | 0.00 | 0.00 | 0.00 | 65 | 1009.9 |
| 20260506001517 | 63 | 187 | 1.0 | 5.0 | 0.00 | 0.00 | 0.00 | 66 | 1009.8 |
| 20260506000517 | 64 | 0.0 | 1.0 | 0.00 | 0.00 | 0.00 | 65 | 1009.7 | |
| 20260505235517 | 65 | 174 | 1.0 | 6.0 | 0.00 | 0.00 | 0.00 | 60 | 1009.8 |
| 20260505234517 | 65 | 233 | 1.0 | 7.0 | 0.00 | 0.00 | 0.00 | 59 | 1009.6 |
| 20260505233517 | 64 | 198 | 1.0 | 5.0 | 0.00 | 0.00 | 0.00 | 62 | 1009.6 |
| 20260505232517 | 64 | 336 | 0.0 | 2.0 | 0.00 | 0.00 | 0.00 | 64 | 1009.6 |
| 20260505231517 | 64 | 336 | 0.0 | 2.0 | 0.00 | 0.00 | 0.00 | 64 | 1009.5 |
| 20260505230517 | 65 | 0.0 | 1.0 | 0.00 | 0.00 | 0.00 | 64 | 1009.5 | |
| 20260505225537 | 65 | 336 | 0.0 | 2.0 | 0.00 | 0.00 | 0.00 | 62 | 1009.4 |
| 20260505224517 | 65 | 336 | 0.0 | 2.0 | 0.00 | 0.00 | 0.00 | 63 | 1009.4 |
| 20260505223517 | 65 | 331 | 1.0 | 4.0 | 0.00 | 0.00 | 0.00 | 63 | 1009.4 |
| 20260505222517 | 65 | 56 | 0.0 | 3.0 | 0.00 | 0.00 | 0.00 | 62 | 1009.3 |
| 20260505221517 | 67 | 15 | 4.0 | 9.0 | 0.00 | 0.00 | 0.00 | 59 | 1009.1 |
| 20260505220517 | 68 | 286 | 1.0 | 6.0 | 0.00 | 0.00 | 0.00 | 50 | 1008.9 |
| 20260505215517 | 68 | 257 | 3.0 | 8.0 | 0.00 | 0.00 | 0.00 | 48 | 1008.9 |
| 20260505214516 | 69 | 244 | 3.0 | 13.0 | 0.00 | 0.00 | 0.00 | 47 | 1008.9 |
| 20260505213516 | 70 | 243 | 9.0 | 18.0 | 0.00 | 0.00 | 0.00 | 43 | 1009.2 |
| 20260505212516 | 71 | 204 | 6.0 | 19.0 | 0.00 | 0.00 | 0.00 | 41 | 1008.8 |
| 20260505211516 | 71 | 209 | 4.0 | 12.0 | 0.00 | 0.00 | 0.00 | 41 | 1008.4 |
| 20260505210556 | 72 | 203 | 5.0 | 12.0 | 0.00 | 0.00 | 0.00 | 41 | 1008.0 |
| 20260505205516 | 72 | 216 | 6.0 | 25.0 | 0.00 | 0.00 | 0.00 | 41 | 1007.9 |
| 20260505204536 | 73 | 195 | 10.0 | 24.0 | 0.00 | 0.00 | 0.00 | 40 | 1007.9 |
| 20260505203516 | 74 | 219 | 9.0 | 20.0 | 0.00 | 0.00 | 0.00 | 38 | 1007.8 |
| 20260505202516 | 75 | 191 | 7.0 | 23.0 | 0.00 | 0.00 | 0.00 | 39 | 1007.9 |
| 20260505201516 | 75 | 174 | 9.0 | 17.0 | 0.00 | 0.00 | 0.00 | 39 | 1007.9 |
| 20260505200516 | 74 | 206 | 7.0 | 21.0 | 0.00 | 0.00 | 0.00 | 42 | 1007.9 |
| 20260505195516 | 73 | 188 | 9.0 | 19.0 | 0.00 | 0.00 | 0.00 | 41 | 1007.9 |
| 20260505194516 | 74 | 180 | 9.0 | 24.0 | 0.00 | 0.00 | 0.00 | 42 | 1008.0 |
| 20260505193516 | 75 | 187 | 7.0 | 15.0 | 0.00 | 0.00 | 0.00 | 41 | 1008.1 |
| 20260505192516 | 74 | 186 | 7.0 | 16.0 | 0.00 | 0.00 | 0.00 | 39 | 1008.4 |
| 20260505191516 | 74 | 215 | 9.0 | 27.0 | 0.00 | 0.00 | 0.00 | 37 | 1008.5 |
| 20260505190516 | 75 | 227 | 11.0 | 33.0 | 0.00 | 0.00 | 0.00 | 35 | 1008.4 |
| 20260505185516 | 75 | 207 | 10.0 | 21.0 | 0.00 | 0.00 | 0.00 | 37 | 1008.7 |
| 20260505184516 | 74 | 209 | 10.0 | 23.0 | 0.00 | 0.00 | 0.00 | 37 | 1008.9 |
| 20260505183536 | 74 | 205 | 9.0 | 28.0 | 0.00 | 0.00 | 0.00 | 39 | 1009.1 |
| 20260505182516 | 73 | 202 | 6.0 | 17.0 | 0.00 | 0.00 | 0.00 | 43 | 1009.0 |
| 20260505181516 | 74 | 174 | 9.0 | 21.0 | 0.00 | 0.00 | 0.00 | 42 | 1009.2 |
| 20260505180516 | 74 | 194 | 9.0 | 17.0 | 0.00 | 0.00 | 0.00 | 43 | 1009.1 |
| 20260505175516 | 74 | 215 | 8.0 | 15.0 | 0.00 | 0.00 | 0.00 | 42 | 1009.3 |
| 20260505174536 | 74 | 207 | 10.0 | 23.0 | 0.00 | 0.00 | 0.00 | 42 | 1009.3 |
| 20260505173517 | 73 | 195 | 7.0 | 25.0 | 0.00 | 0.00 | 0.00 | 44 | 1009.1 |